"Pseudo-MPEC" for P21BSaf

Created 2022 Nov 27 7:22:26 UT using Find_Orb

Click here for an explanation of pseudo-MPECs

 
 Astrometry: 
     P21BSaf* C2022 11 17TAya+gO6iK.@mAstrometryYc1KK-V)v,HVredacted;]u\@)#?DF52
     P21BSaf  C2022 11 17bAf7Xh[]P!P0d;5iIlLERuUjJ70-n)RWJrH\:)?j+IIejmh\sghHF52
     P21BSaf  C2022 11 17BXLZhZNqf_v^click.2x7RBvUwtheregGb#@OkirJ;,8O4d;t`S\F52
     P21BSaf KC2022 11 23r+M$NJ4K$.lKqok`4Ld*X#YmgOA'\#yhPXpTlAXg)K\OLv=xaG1[H36
     P21BSaf KC2022 11 23X_dyfFV?4`w^;iYforMjF1o\`uY#Nt%_8`=explanationwJp=JLH36
     P21BSaf KC2022 11 23\924w'#W/G#@=`Zl?7@mp%+VB\Z8S+5x+#uf'Ru(Voyp)liu2\k8H36
     P21BSaf mC2022 11 26.39697307 57 00.460+35 58 34.20   ~BQA7       VNEOCPI52
     P21BSaf mC2022 11 26.40423907 57 00.120+35 58 29.60   ~BQA7 21.89GVNEOCPI52

Station data:
(F52) Pan-STARRS 2, Haleakala  (N20.707382 W156.255910)  US/Hawaii.
   Observers J. Bulger, T. Dukes, T. Lowe, A. Schultz, M. Willman. Measurers
   K. Chambers, S. Chastel, T. de Boer, L. Denneau, J. Fairlamb, H.
   Flewelling, M. Huber, C.-C. Lin, E. Magnier, Y. Ramanjooloo, R. Wainscoat,
   R. Weryk. 1.8-m Ritchey-Chrétien + CCD.
(H36) Sandlot Observatory, Scranton  (N38.797691 W95.706400)  US/Kansas.
   Observer G. Hug. 0.56-m reflector + CCD.
(I52) Steward Observatory, Mt. Lemmon Station  (N32.442544 W110.788920)
   US/Arizona.  Observers T. A. Pruyne, B. M. Africano, E. J. Christensen, G.
   A. Farneth, D. C. Fuls, A. R. Gibbs, A. D. Grauer, H. Gröller, J. A.
   Johnson, R. A. Kowalski, S. M. Larson, G. J. Leonard, D. Rankin, R. L.
   Seaman, F. C. Shelly, K. W. Wierzchoś. 1.0-m reflector + CCD.

Orbital elements:  P21BSaf
   Perihelion 2022 Jul 16.61092 +/- 0.698 TT = 14:39:43 (JD 2459777.11092)
Epoch 2022 Nov 26.0 TT = JDT 2459909.5   Earth MOID: 0.8271   AutoNEOCP
M  28.43955594 +/- 0.47             (J2000 ecliptic)
n   0.21481798 +/- 0.0025           Peri.   92.19603 +/- 0.10
a   2.76114336 +/- 0.0214           Node   288.15337 +/- 0.055
e   0.4304556 +/- 0.00566           Incl.   27.84688 +/- 0.12
P   4.59                   H 18.2   G  0.15   U  8.7
q 1.57259356 +/- 0.00456    Q 3.94969315 +/- 0.046
From 8 observations 2022 Nov. 17-26; mean residual 0".39
Residuals in arcseconds: 
221117 F52  .09-  .00     221123 H36  1.1-  .61+    221126 I52  .17-  .12+    
221117 F52  .02+  .12+    221123 H36  .57+  .47-    221126 I52  .16+  .11-    
221117 F52  .07+  .11-    221123 H36  .50+  .16-    

Ephemerides (geocentric):
Date (UTC) HH   RA             Dec           delta  r     elong  mag " sig PA
---- --------  ------------   ------------  ------ ------ -----  --- --------
2022 11 27 07  07 56 16.622   +35 49 26.56  1.1663 1.9453 129.0 21.1 .515 130
2022 11 27 08  07 56 14.527   +35 49 00.94  1.1661 1.9455 129.1 21.1 .528 130
2022 11 27 09  07 56 12.427   +35 48 35.30  1.1659 1.9456 129.1 21.1 .540 130
2022 11 27 10  07 56 10.321   +35 48 09.66  1.1657 1.9458 129.2 21.1 .553 130
2022 11 27 11  07 56 08.209   +35 47 44.01  1.1656 1.9460 129.2 21.1 .567 130
2022 11 27 12  07 56 06.092   +35 47 18.34  1.1654 1.9462 129.3 21.1 .580 130
2022 11 27 13  07 56 03.969   +35 46 52.66  1.1652 1.9464 129.3 21.1 .593 130
2022 11 27 14  07 56 01.841   +35 46 26.97  1.1650 1.9466 129.4 21.1 .606 130
2022 11 27 15  07 55 59.708   +35 46 01.27  1.1648 1.9468 129.4 21.1 .620 130
2022 11 27 16  07 55 57.569   +35 45 35.55  1.1646 1.9470 129.5 21.1 .633 130
2022 11 27 17  07 55 55.424   +35 45 09.82  1.1644 1.9472 129.5 21.1 .647 130
2022 11 27 18  07 55 53.274   +35 44 44.09  1.1642 1.9474 129.6 21.1 .660 130
2022 11 27 19  07 55 51.119   +35 44 18.33  1.1640 1.9476 129.6 21.0 .674 130
2022 11 27 20  07 55 48.958   +35 43 52.57  1.1638 1.9478 129.7 21.0 .688 131
2022 11 27 21  07 55 46.791   +35 43 26.80  1.1636 1.9480 129.7 21.0 .702 131
2022 11 27 22  07 55 44.620   +35 43 01.01  1.1634 1.9481 129.7 21.0 .716 131
2022 11 27 23  07 55 42.442   +35 42 35.21  1.1633 1.9483 129.8 21.0 .730 131
2022 11 28 00  07 55 40.260   +35 42 09.40  1.1631 1.9485 129.8 21.0 .744 131
2022 11 28 01  07 55 38.071   +35 41 43.57  1.1629 1.9487 129.9 21.0 .758 131
2022 11 28 02  07 55 35.878   +35 41 17.74  1.1627 1.9489 129.9 21.0 .772 131
2022 11 28 03  07 55 33.679   +35 40 51.89  1.1625 1.9491 130.0 21.0 .787 131
2022 11 28 04  07 55 31.474   +35 40 26.03  1.1623 1.9493 130.0 21.0 .801 131
2022 11 28 05  07 55 29.264   +35 40 00.15  1.1621 1.9495 130.1 21.0 .816 131
2022 11 28 06  07 55 27.049   +35 39 34.27  1.1619 1.9497 130.1 21.0 .830 131
2022 11 28 07  07 55 24.828   +35 39 08.37  1.1617 1.9499 130.2 21.0 .845 131
2022 11 28 08  07 55 22.602   +35 38 42.46  1.1615 1.9501 130.2 21.0 .860 131
2022 11 28 09  07 55 20.370   +35 38 16.54  1.1614 1.9503 130.3 21.0 .875 131
2022 11 28 10  07 55 18.133   +35 37 50.60  1.1612 1.9504 130.3 21.0 .889 131
2022 11 28 11  07 55 15.890   +35 37 24.65  1.1610 1.9506 130.4 21.0 .904 131
2022 11 28 12  07 55 13.642   +35 36 58.69  1.1608 1.9508 130.4 21.0 .919 131
2022 11 28 13  07 55 11.389   +35 36 32.72  1.1606 1.9510 130.5 21.0 .935 131
2022 11 28 14  07 55 09.130   +35 36 06.73  1.1604 1.9512 130.5 21.0 .950 131
2022 11 28 15  07 55 06.866   +35 35 40.74  1.1602 1.9514 130.6 21.0 .965 132
2022 11 28 16  07 55 04.597   +35 35 14.73  1.1601 1.9516 130.6 21.0 .980 132
2022 11 28 17  07 55 02.322   +35 34 48.70  1.1599 1.9518 130.6 21.0 1.00 132
2022 11 28 18  07 55 00.042   +35 34 22.67  1.1597 1.9520 130.7 21.0 1.01 132
2022 11 28 19  07 54 57.756   +35 33 56.62  1.1595 1.9522 130.7 21.0 1.03 132
2022 11 28 20  07 54 55.465   +35 33 30.56  1.1593 1.9524 130.8 21.0 1.04 132
2022 11 28 21  07 54 53.168   +35 33 04.48  1.1591 1.9526 130.8 21.0 1.06 132
2022 11 28 22  07 54 50.867   +35 32 38.40  1.1589 1.9528 130.9 21.0 1.07 132
2022 11 28 23  07 54 48.559   +35 32 12.30  1.1588 1.9529 130.9 21.0 1.09 132
2022 11 29 00  07 54 46.247   +35 31 46.18  1.1586 1.9531 131.0 21.0 1.11 132
2022 11 29 01  07 54 43.929   +35 31 20.06  1.1584 1.9533 131.0 21.0 1.12 132
2022 11 29 02  07 54 41.606   +35 30 53.92  1.1582 1.9535 131.1 21.0 1.14 132
2022 11 29 03  07 54 39.277   +35 30 27.77  1.1580 1.9537 131.1 21.0 1.15 132
2022 11 29 04  07 54 36.943   +35 30 01.60  1.1578 1.9539 131.2 21.0 1.17 132
2022 11 29 05  07 54 34.604   +35 29 35.43  1.1577 1.9541 131.2 21.0 1.19 132
2022 11 29 06  07 54 32.259   +35 29 09.24  1.1575 1.9543 131.3 21.0 1.20 132